User: anonymous   Login
Location: Valdosta
(30.8330°N, 83.2790°W)
Time: 01:28:17
(UTC-04:00)
Language:

Oscar 19 - Orbit

View from above orbital plane
View from above orbital plane
View from above satellite
View from above satellite

Ground track
Ground track

The orbit data is extracted from the following two-line orbital elements,

1 20442U 90005G   17112.76848931 +.00000041 +00000-0 +31188-4 0  9994
2 20442 098.5725 049.8557 0010969 316.1314 043.8998 14.32856544423622
Epoch (UTC): 22 April 2017 18:26:37
Eccentricity: 0.0010969
inclination: 98.5725°
perigee height: 774 km
apogee height: 790 km
right ascension of ascending node: 49.8557°
argument of perigee: 316.1314°
revolutions per day: 14.32856544
mean anomaly at epoch: 43.8998°
orbit number at epoch: 42362

The dashed part of the orbit path shows where the satellite is in the earth's shadow,  

DLR